| time (UTC) | temp F | wind direction | speed MPH | gust MPH | rain 1hr in | rain 24hr in | rain mn in | humidity % | barometer mb |
| 20260510214002 | 48 | 0 | 0.0 | 0.0 | 0.00 | 0.00 | 0.00 | 36 | |
| 20260510213157 | 48 | 0 | 0.0 | 0.0 | 0.00 | 0.00 | 0.00 | 37 | |
| 20260510212157 | 48 | 0 | 0.0 | 0.0 | 0.00 | 0.00 | 0.00 | 39 | |
| 20260510211156 | 48 | 0 | 0.0 | 0.0 | 0.00 | 0.00 | 0.00 | 42 | |
| 20260510210156 | 47 | 0 | 0.0 | 0.0 | 0.00 | 0.00 | 0.00 | 45 | |
| 20260510210002 | 46 | 0 | 0.0 | 0.0 | 0.00 | 0.00 | 0.00 | 46 | |
| 20260510205156 | 45 | 0 | 0.0 | 0.0 | 0.00 | 0.00 | 0.00 | 48 | |
| 20260510204156 | 45 | 0 | 0.0 | 0.0 | 0.00 | 0.00 | 0.00 | 37 | |
| 20260510204002 | 45 | 0 | 0.0 | 0.0 | 0.00 | 0.00 | 0.00 | 37 | |
| 20260510203157 | 45 | 0 | 0.0 | 0.0 | 0.00 | 0.00 | 0.00 | 37 | |
| 20260510202157 | 45 | 0 | 0.0 | 0.0 | 0.00 | 0.00 | 0.00 | 37 | |
| 20260510202002 | 45 | 0 | 0.0 | 0.0 | 0.00 | 0.00 | 0.00 | 37 | |
| 20260510201157 | 46 | 0 | 0.0 | 0.0 | 0.00 | 0.00 | 0.00 | 36 | |
| 20260510200002 | 47 | 0 | 0.0 | 0.0 | 0.00 | 0.00 | 0.00 | 31 | |
| 20260510195157 | 49 | 0 | 0.0 | 0.0 | 0.00 | 0.00 | 0.00 | 27 | |
| 20260510194157 | 50 | 0 | 0.0 | 0.0 | 0.00 | 0.00 | 0.00 | 26 | |
| 20260510193157 | 51 | 0 | 0.0 | 0.0 | 0.00 | 0.00 | 0.00 | 25 | |
| 20260510192157 | 52 | 0 | 0.0 | 0.0 | 0.00 | 0.00 | 0.00 | 24 | |
| 20260510192002 | 52 | 0 | 0.0 | 0.0 | 0.00 | 0.00 | 0.00 | 24 | |
| 20260510191156 | 53 | 0 | 0.0 | 0.0 | 0.00 | 0.00 | 0.00 | 24 | |
| 20260510190157 | 53 | 0 | 0.0 | 0.0 | 0.00 | 0.00 | 0.00 | 24 | |
| 20260510190002 | 54 | 0 | 0.0 | 0.0 | 0.00 | 0.00 | 0.00 | 24 | |
| 20260510185156 | 54 | 0 | 0.0 | 0.0 | 0.00 | 0.00 | 0.00 | 23 | |
| 20260510184156 | 56 | 0 | 0.0 | 0.0 | 0.00 | 0.00 | 0.00 | 23 | |
| 20260510184002 | 56 | 0 | 0.0 | 0.0 | 0.00 | 0.00 | 0.00 | 23 | |
| 20260510183156 | 60 | 0 | 0.0 | 0.0 | 0.00 | 0.00 | 0.00 | 22 | |
| 20260510182156 | 61 | 0 | 0.0 | 0.0 | 0.00 | 0.00 | 0.00 | 22 | |
| 20260510182002 | 62 | 0 | 0.0 | 0.0 | 0.00 | 0.00 | 0.00 | 22 | |
| 20260510181157 | 62 | 0 | 0.0 | 0.0 | 0.00 | 0.00 | 0.00 | 22 | |
| 20260510180156 | 62 | 0 | 0.0 | 0.0 | 0.00 | 0.00 | 0.00 | 22 | |
| 20260510180002 | 62 | 0 | 0.0 | 0.0 | 0.00 | 0.00 | 0.00 | 22 | |
| 20260510175157 | 62 | 0 | 0.0 | 0.0 | 0.00 | 0.00 | 0.00 | 22 | |
| 20260510174157 | 63 | 0 | 0.0 | 0.0 | 0.00 | 0.00 | 0.00 | 21 | |
| 20260510174003 | 61 | 0 | 0.0 | 0.0 | 0.00 | 0.00 | 0.00 | 22 | |
| 20260510173157 | 57 | 0 | 0.0 | 0.0 | 0.00 | 0.00 | 0.00 | 23 | |
| 20260510172157 | 62 | 0 | 0.0 | 0.0 | 0.00 | 0.00 | 0.00 | 22 | |
| 20260510172002 | 63 | 0 | 0.0 | 0.0 | 0.00 | 0.00 | 0.00 | 21 | |
| 20260510171157 | 62 | 0 | 0.0 | 0.0 | 0.00 | 0.00 | 0.00 | 22 | |
| 20260510170156 | 60 | 0 | 0.0 | 0.0 | 0.00 | 0.00 | 0.00 | 22 | |
| 20260510165156 | 66 | 0 | 0.0 | 0.0 | 0.00 | 0.00 | 0.00 | 21 | |
| 20260510164156 | 61 | 0 | 0.0 | 0.0 | 0.00 | 0.00 | 0.00 | 22 | |
| 20260510163156 | 56 | 0 | 0.0 | 0.0 | 0.00 | 0.00 | 0.00 | 23 | |
| 20260510162157 | 56 | 0 | 0.0 | 0.0 | 0.00 | 0.00 | 0.00 | 23 | |
| 20260510161157 | 57 | 0 | 0.0 | 0.0 | 0.00 | 0.00 | 0.00 | 23 | |
| 20260510160156 | 60 | 0 | 0.0 | 0.0 | 0.00 | 0.00 | 0.00 | 22 | |
| 20260510155157 | 61 | 0 | 0.0 | 0.0 | 0.00 | 0.00 | 0.00 | 22 | |
| 20260510154157 | 60 | 0 | 0.0 | 0.0 | 0.00 | 0.00 | 0.00 | 22 | |
| 20260510154002 | 60 | 0 | 0.0 | 0.0 | 0.00 | 0.00 | 0.00 | 22 | |
| 20260510152157 | 60 | 0 | 0.0 | 0.0 | 0.00 | 0.00 | 0.00 | 22 | |
| 20260510152002 | 60 | 0 | 0.0 | 0.0 | 0.00 | 0.00 | 0.00 | 22 | |
| 20260510151157 | 63 | 0 | 0.0 | 0.0 | 0.00 | 0.00 | 0.00 | 22 | |
| 20260510150157 | 64 | 0 | 0.0 | 0.0 | 0.00 | 0.00 | 0.00 | 21 | |
| 20260510150002 | 64 | 0 | 0.0 | 0.0 | 0.00 | 0.00 | 0.00 | 21 | |
| 20260510145156 | 63 | 0 | 0.0 | 0.0 | 0.00 | 0.00 | 0.00 | 21 | |
| 20260510144156 | 60 | 0 | 0.0 | 0.0 | 0.00 | 0.00 | 0.00 | 22 | |
| 20260510143156 | 61 | 0 | 0.0 | 0.0 | 0.00 | 0.00 | 0.00 | 22 | |
| 20260510142002 | 61 | 0 | 0.0 | 0.0 | 0.00 | 0.00 | 0.00 | 22 | |
| 20260510141157 | 60 | 0 | 0.0 | 0.0 | 0.00 | 0.00 | 0.00 | 22 | |
| 20260510140156 | 62 | 0 | 0.0 | 0.0 | 0.00 | 0.00 | 0.00 | 22 | |
| 20260510135157 | 61 | 0 | 0.0 | 0.0 | 0.00 | 0.00 | 0.00 | 22 | |
| 20260510134157 | 60 | 0 | 0.0 | 0.0 | 0.00 | 0.00 | 0.00 | 22 | |
| 20260510133157 | 62 | 0 | 0.0 | 0.0 | 0.00 | 0.00 | 0.00 | 22 | |
| 20260510132157 | 60 | 0 | 0.0 | 0.0 | 0.00 | 0.00 | 0.00 | 22 | |
| 20260510132003 | 60 | 0 | 0.0 | 0.0 | 0.00 | 0.00 | 0.00 | 22 | |
| 20260510131157 | 62 | 0 | 0.0 | 0.0 | 0.00 | 0.00 | 0.00 | 22 | |
| 20260510130157 | 60 | 0 | 0.0 | 0.0 | 0.00 | 0.00 | 0.00 | 22 | |
| 20260510130002 | 59 | 0 | 0.0 | 0.0 | 0.00 | 0.00 | 0.00 | 23 | |
| 20260510125156 | 59 | 0 | 0.0 | 0.0 | 0.00 | 0.00 | 0.00 | 23 | |
| 20260510124156 | 63 | 0 | 0.0 | 6.0 | 0.00 | 0.00 | 0.00 | 22 | |
| 20260510122156 | 61 | 0 | 0.0 | 0.0 | 0.00 | 0.00 | 0.00 | 22 | |
| 20260510122003 | 61 | 0 | 0.0 | 0.0 | 0.00 | 0.00 | 0.00 | 22 | |
| 20260510121157 | 62 | 0 | 0.0 | 0.0 | 0.00 | 0.00 | 0.00 | 22 | |
| 20260510120003 | 59 | 0 | 0.0 | 0.0 | 0.00 | 0.00 | 0.00 | 23 | |
| 20260510115157 | 60 | 0 | 0.0 | 0.0 | 0.00 | 0.00 | 0.00 | 23 | |
| 20260510114157 | 59 | 0 | 0.0 | 0.0 | 0.00 | 0.00 | 0.00 | 23 | |
| 20260510114003 | 59 | 0 | 0.0 | 0.0 | 0.00 | 0.00 | 0.00 | 23 | |
| 20260510112157 | 59 | 0 | 0.0 | 0.0 | 0.00 | 0.00 | 0.00 | 23 | |
| 20260510112002 | 59 | 0 | 0.0 | 0.0 | 0.00 | 0.00 | 0.00 | 23 | |
| 20260510111157 | 59 | 0 | 0.0 | 0.0 | 0.00 | 0.00 | 0.00 | 23 | |
| 20260510110157 | 59 | 0 | 0.0 | 0.0 | 0.00 | 0.00 | 0.00 | 23 | |
| 20260510105156 | 57 | 0 | 0.0 | 2.0 | 0.00 | 0.00 | 0.00 | 25 | |
| 20260510104156 | 54 | 0 | 0.0 | 0.0 | 0.00 | 0.00 | 0.00 | 28 | |
| 20260510104002 | 54 | 0 | 0.0 | 0.0 | 0.00 | 0.00 | 0.00 | 29 | |
| 20260510103156 | 52 | 0 | 0.0 | 0.0 | 0.00 | 0.00 | 0.00 | 30 | |
| 20260510102156 | 53 | 0 | 0.0 | 0.0 | 0.00 | 0.00 | 0.00 | 29 | |
| 20260510101156 | 54 | 0 | 0.0 | 0.0 | 0.00 | 0.00 | 0.00 | 29 | |
| 20260510100156 | 54 | 0 | 0.0 | 0.0 | 0.00 | 0.00 | 0.00 | 28 | |
| 20260510095157 | 54 | 0 | 0.0 | 0.0 | 0.00 | 0.00 | 0.00 | 31 | |
| 20260510094157 | 52 | 0 | 0.0 | 0.0 | 0.00 | 0.00 | 0.00 | 35 | |
| 20260510094002 | 52 | 0 | 0.0 | 0.0 | 0.00 | 0.00 | 0.00 | 36 | |
| 20260510093157 | 51 | 0 | 0.0 | 0.0 | 0.00 | 0.00 | 0.00 | 36 | |
| 20260510092157 | 50 | 0 | 0.0 | 0.0 | 0.00 | 0.00 | 0.00 | 38 | |
| 20260510092002 | 50 | 0 | 0.0 | 0.0 | 0.00 | 0.00 | 0.00 | 38 | |
| 20260510091157 | 49 | 0 | 0.0 | 0.0 | 0.00 | 0.00 | 0.00 | 39 | |
| 20260510090157 | 49 | 0 | 0.0 | 0.0 | 0.00 | 0.00 | 0.00 | 41 | |
| 20260510090003 | 49 | 0 | 0.0 | 0.0 | 0.00 | 0.00 | 0.00 | 42 | |
| 20260510085157 | 49 | 0 | 0.0 | 0.0 | 0.00 | 0.00 | 0.00 | 42 | |
| 20260510084156 | 49 | 0 | 0.0 | 0.0 | 0.00 | 0.00 | 0.00 | 42 | |
| 20260510084002 | 49 | 0 | 0.0 | 0.0 | 0.00 | 0.00 | 0.00 | 43 | |
| 20260510083156 | 49 | 0 | 0.0 | 0.0 | 0.00 | 0.00 | 0.00 | 43 | |
| 20260510082156 | 48 | 0 | 0.0 | 0.0 | 0.00 | 0.00 | 0.00 | 45 | |
| 20260510082002 | 48 | 0 | 0.0 | 0.0 | 0.00 | 0.00 | 0.00 | 45 | |
| 20260510081156 | 47 | 0 | 0.0 | 0.0 | 0.00 | 0.00 | 0.00 | 46 | |
| 20260510080156 | 47 | 0 | 0.0 | 0.0 | 0.00 | 0.00 | 0.00 | 47 | |
| 20260510080002 | 46 | 0 | 0.0 | 0.0 | 0.00 | 0.00 | 0.00 | 47 | |
| 20260510075156 | 46 | 0 | 0.0 | 0.0 | 0.00 | 0.00 | 0.00 | 48 | |
| 20260510074157 | 46 | 0 | 0.0 | 0.0 | 0.00 | 0.00 | 0.00 | 50 | |
| 20260510074002 | 46 | 0 | 0.0 | 0.0 | 0.00 | 0.00 | 0.00 | 51 | |
| 20260510073201 | 46 | 0 | 0.0 | 0.0 | 0.00 | 0.00 | 0.00 | 52 | |
| 20260510072157 | 46 | 0 | 0.0 | 0.0 | 0.00 | 0.00 | 0.00 | 53 | |
| 20260510072003 | 46 | 0 | 0.0 | 0.0 | 0.00 | 0.00 | 0.00 | 53 | |
| 20260510071157 | 46 | 0 | 0.0 | 0.0 | 0.00 | 0.00 | 0.00 | 53 | |
| 20260510070157 | 46 | 0 | 0.0 | 0.0 | 0.00 | 0.00 | 0.00 | 53 | |
| 20260510070002 | 46 | 0 | 0.0 | 0.0 | 0.00 | 0.00 | 0.00 | 53 | |
| 20260510065157 | 46 | 0 | 0.0 | 0.0 | 0.00 | 0.00 | 0.00 | 53 | |
| 20260510064156 | 46 | 0 | 0.0 | 0.0 | 0.00 | 0.00 | 0.00 | 55 | |
| 20260510064002 | 46 | 0 | 0.0 | 0.0 | 0.00 | 0.00 | 0.00 | 55 | |
| 20260510063156 | 46 | 0 | 0.0 | 0.0 | 0.00 | 0.00 | 0.00 | 56 | |
| 20260510062156 | 46 | 0 | 0.0 | 0.0 | 0.00 | 0.00 | 0.00 | 56 | |
| 20260510062002 | 46 | 0 | 0.0 | 0.0 | 0.00 | 0.00 | 0.00 | 56 | |
| 20260510061156 | 46 | 0 | 0.0 | 0.0 | 0.00 | 0.00 | 0.00 | 56 | |
| 20260510060157 | 46 | 0 | 0.0 | 0.0 | 0.00 | 0.00 | 0.00 | 56 | |
| 20260510060002 | 46 | 0 | 0.0 | 0.0 | 0.00 | 0.00 | 0.00 | 56 | |
| 20260510055156 | 46 | 0 | 0.0 | 0.0 | 0.00 | 0.00 | 0.00 | 56 | |
| 20260510054157 | 46 | 0 | 0.0 | 0.0 | 0.00 | 0.00 | 0.00 | 57 | |
| 20260510054003 | 46 | 0 | 0.0 | 0.0 | 0.00 | 0.00 | 0.00 | 57 | |
| 20260510053156 | 46 | 0 | 0.0 | 0.0 | 0.00 | 0.00 | 0.00 | 57 | |
| 20260510052157 | 46 | 0 | 0.0 | 0.0 | 0.00 | 0.00 | 0.00 | 57 | |
| 20260510052003 | 46 | 0 | 0.0 | 0.0 | 0.00 | 0.00 | 0.00 | 57 | |
| 20260510050157 | 46 | 0 | 0.0 | 0.0 | 0.00 | 0.00 | 0.00 | 59 | |
| 20260510050003 | 46 | 0 | 0.0 | 0.0 | 0.00 | 0.00 | 0.00 | 59 | |
| 20260510045157 | 46 | 0 | 0.0 | 0.0 | 0.00 | 0.00 | 0.00 | 60 | |
| 20260510044157 | 46 | 0 | 0.0 | 0.0 | 0.00 | 0.00 | 0.00 | 60 | |
| 20260510044002 | 46 | 0 | 0.0 | 0.0 | 0.00 | 0.00 | 0.00 | 60 | |
| 20260510043156 | 46 | 0 | 0.0 | 0.0 | 0.00 | 0.00 | 0.00 | 61 | |
| 20260510042156 | 46 | 0 | 0.0 | 0.0 | 0.00 | 0.00 | 0.00 | 61 | |
| 20260510042002 | 46 | 0 | 0.0 | 0.0 | 0.00 | 0.00 | 0.00 | 61 | |
| 20260510041156 | 46 | 0 | 0.0 | 0.0 | 0.00 | 0.00 | 0.00 | 61 | |
| 20260510040156 | 46 | 0 | 0.0 | 0.0 | 0.00 | 0.00 | 0.00 | 61 | |
| 20260510040002 | 46 | 0 | 0.0 | 0.0 | 0.00 | 0.00 | 0.00 | 61 | |
| 20260510035156 | 46 | 0 | 0.0 | 0.0 | 0.00 | 0.00 | 0.00 | 61 | |
| 20260510034002 | 46 | 0 | 0.0 | 0.0 | 0.00 | 0.00 | 0.00 | 62 | |
| 20260510033156 | 46 | 0 | 0.0 | 0.0 | 0.00 | 0.00 | 0.00 | 62 | |
| 20260510032156 | 46 | 0 | 0.0 | 0.0 | 0.00 | 0.00 | 0.00 | 63 | |
| 20260510032002 | 46 | 0 | 0.0 | 0.0 | 0.00 | 0.00 | 0.00 | 63 | |
| 20260510031157 | 46 | 0 | 0.0 | 0.0 | 0.00 | 0.00 | 0.00 | 63 | |
| 20260510030157 | 46 | 0 | 0.0 | 0.0 | 0.00 | 0.00 | 0.00 | 64 | |
| 20260510030002 | 46 | 0 | 0.0 | 0.0 | 0.00 | 0.00 | 0.00 | 64 | |
| 20260510025157 | 46 | 0 | 0.0 | 0.0 | 0.00 | 0.00 | 0.00 | 63 | |
| 20260510024157 | 46 | 0 | 0.0 | 0.0 | 0.00 | 0.00 | 0.00 | 63 | |
| 20260510024002 | 46 | 0 | 0.0 | 0.0 | 0.00 | 0.00 | 0.00 | 63 | |
| 20260510023157 | 46 | 0 | 0.0 | 0.0 | 0.00 | 0.00 | 0.00 | 63 | |
| 20260510022156 | 47 | 0 | 0.0 | 0.0 | 0.00 | 0.00 | 0.00 | 63 | |
| 20260510022002 | 46 | 0 | 0.0 | 0.0 | 0.00 | 0.00 | 0.00 | 63 | |
| 20260510021157 | 47 | 0 | 0.0 | 0.0 | 0.00 | 0.00 | 0.00 | 64 | |
| 20260510020156 | 47 | 0 | 0.0 | 0.0 | 0.00 | 0.00 | 0.00 | 64 | |
| 20260510020003 | 47 | 0 | 0.0 | 0.0 | 0.00 | 0.00 | 0.00 | 64 | |
| 20260510015157 | 47 | 0 | 0.0 | 0.0 | 0.00 | 0.00 | 0.00 | 64 | |
| 20260510014157 | 47 | 0 | 0.0 | 0.0 | 0.00 | 0.00 | 0.00 | 64 | |
| 20260510014003 | 47 | 0 | 0.0 | 0.0 | 0.00 | 0.00 | 0.00 | 64 | |
| 20260510013156 | 47 | 0 | 0.0 | 0.0 | 0.00 | 0.00 | 0.00 | 64 | |
| 20260510012157 | 47 | 0 | 0.0 | 0.0 | 0.00 | 0.00 | 0.00 | 64 | |
| 20260510012002 | 47 | 0 | 0.0 | 0.0 | 0.00 | 0.00 | 0.00 | 64 | |
| 20260510011156 | 47 | 0 | 0.0 | 0.0 | 0.00 | 0.00 | 0.00 | 64 | |
| 20260510010157 | 47 | 0 | 0.0 | 0.0 | 0.00 | 0.00 | 0.00 | 65 | |
| 20260510010003 | 47 | 0 | 0.0 | 0.0 | 0.00 | 0.94 | 0.00 | 64 | |
| 20260510005157 | 47 | 0 | 0.0 | 0.0 | 0.00 | 0.94 | 0.00 | 64 | |
| 20260510004157 | 47 | 0 | 0.0 | 0.0 | 0.00 | 0.94 | 0.00 | 64 | |
| 20260510004002 | 47 | 0 | 0.0 | 0.0 | 0.00 | 0.94 | 0.00 | 64 | |
| 20260510003157 | 48 | 0 | 0.0 | 0.0 | 0.00 | 0.94 | 0.00 | 64 | |
| 20260510002157 | 48 | 0 | 0.0 | 0.0 | 0.00 | 0.94 | 0.00 | 63 | |
| 20260510002003 | 48 | 0 | 0.0 | 0.0 | 0.00 | 0.94 | 0.00 | 63 | |
| 20260510001156 | 48 | 0 | 0.0 | 0.0 | 0.00 | 0.94 | 0.00 | 63 | |
| 20260510000156 | 48 | 0 | 0.0 | 0.0 | 0.00 | 1.89 | 0.00 | 62 | |
| 20260510000002 | 48 | 0 | 0.0 | 0.0 | 0.00 | 1.89 | 0.00 | 62 | |
| 20260509235156 | 48 | 0 | 0.0 | 0.0 | 0.00 | 1.89 | 0.00 | 62 | |
| 20260509234157 | 49 | 0 | 0.0 | 0.0 | 0.00 | 1.89 | 0.00 | 62 | |
| 20260509234002 | 49 | 0 | 0.0 | 0.0 | 0.00 | 1.89 | 0.00 | 62 | |
| 20260509233156 | 49 | 0 | 0.0 | 0.0 | 0.00 | 1.89 | 0.00 | 61 | |
| 20260509232156 | 49 | 0 | 0.0 | 0.0 | 0.00 | 1.89 | 0.00 | 60 | |
| 20260509231157 | 50 | 0 | 0.0 | 0.0 | 0.00 | 1.89 | 0.00 | 59 | |
| 20260509230157 | 50 | 0 | 0.0 | 0.0 | 0.00 | 1.89 | 0.00 | 58 | |
| 20260509230003 | 50 | 0 | 0.0 | 0.0 | 0.00 | 0.00 | 0.12 | 58 | |
| 20260509225157 | 50 | 0 | 0.0 | 0.0 | 0.00 | 0.00 | 0.12 | 58 | |
| 20260509224157 | 50 | 0 | 0.0 | 0.0 | 0.00 | 0.00 | 0.12 | 58 | |
| 20260509224003 | 50 | 0 | 0.0 | 0.0 | 0.00 | 0.00 | 0.12 | 58 | |
| 20260509223157 | 50 | 0 | 0.0 | 0.0 | 0.00 | 0.00 | 0.12 | 59 | |
| 20260509222157 | 50 | 0 | 0.0 | 0.0 | 0.00 | 0.00 | 0.12 | 58 | |
| 20260509221157 | 50 | 0 | 0.0 | 0.0 | 0.00 | 0.00 | 0.12 | 58 | |
| 20260509220156 | 50 | 0 | 0.0 | 0.0 | 0.00 | 0.00 | 0.12 | 57 | |
| 20260509220002 | 50 | 0 | 0.0 | 0.0 | 0.00 | 0.94 | 0.12 | 57 | |
| 20260509215156 | 51 | 0 | 0.0 | 0.0 | 0.00 | 0.94 | 0.12 | 56 | |
| 20260509214156 | 51 | 0 | 0.0 | 0.0 | 0.00 | 0.94 | 0.12 | 55 |